Location: Shenandoah County Park
(38.9356°N, 78.4524°W)
Time: 00:03:17
(UTC-04:00)

Transit 4A - Pass Details

Date: 19 June 2023
Orbit: 862 x 981 km, 66.8° (Epoch: 02 October)

Event Time Altitude Azimuth Distance (km) Brightness Sun altitude
Rises 21:27:33 0° 326° (NW) 3,673 12.8 -8.0°
Reaches altitude 10° 21:30:11 10° 321° (NW) 2,730 11.9 -8.4°
Maximum altitude 21:36:19 49° 248° (WSW) 1,240 8.8 -9.3°
Drops below altitude 10° 21:42:25 10° 175° (S) 2,717 9.9 -10.2°
Enters shadow 21:43:58 - 172° (S) 3,269 10.3 -10.4°
